HVN1 VVCI-VVTS

Flight info

Callsign HVN1
Flight time N/A
Altitude 36000
Route LOCHA1C LOCHA Q10 VIDAD Q1 MUMGA/K0846F380 Q1 DOVIN DOVIN5Q
Aircraft A21N/M-SDE2E3FGHIRWXY/LB1

Departure

Time 2026-04-28 19:21
Airport Cat Bi International Airport (VVCI)

Arrival

Time N/A
Airport Tan Son Nhat International Airport (VVTS)
Time Latitude Longitude Altitude Speed Heading
2026-04-28 19:05 20.81663 106.71010 27 ft 0 kts 73°
2026-04-28 19:17 20.81664 106.71012 27 ft 1 kts 73°
2026-04-28 19:18 20.81669 106.71029 28 ft 17 kts 73°
2026-04-28 19:18 20.81709 106.71470 28 ft 97 kts 115°
2026-04-28 19:18 20.81456 106.71905 28 ft 131 kts 132°
2026-04-28 19:18 20.81663 106.71009 28 ft 0 kts 73°
2026-04-28 19:19 20.81681 106.71075 28 ft 41 kts 75°
2026-04-28 19:19 20.81694 106.71132 28 ft 55 kts 76°
2026-04-28 19:19 20.81729 106.71299 28 ft 83 kts 79°
2026-04-28 19:19 20.81797 106.71913 28 ft 138 kts 85°
2026-04-28 19:20 20.81666 106.71020 28 ft 17 kts 73°
2026-04-28 19:20 20.81717 106.71253 28 ft 76 kts 70°
2026-04-28 19:20 20.81663 106.71009 28 ft 0 kts 73°
2026-04-28 19:20 20.81737 106.71277 28 ft 80 kts 73°
2026-04-28 19:21 20.81973 106.72115 28 ft 152 kts 73°
2026-04-28 19:21 20.82326 106.73279 472 ft 168 kts 77°
2026-04-28 19:21 20.82496 106.74509 1144 ft 173 kts 85°
2026-04-28 19:21 20.82434 106.75871 1346 ft 192 kts 108°
2026-04-28 19:22 20.81711 106.77097 1695 ft 202 kts 135°
2026-04-28 19:22 20.81387 106.77444 1818 ft 206 kts 136°
2026-04-28 19:22 20.79580 106.79334 2459 ft 228 kts 136°
2026-04-28 19:22 20.78481 106.80606 2814 ft 244 kts 135°
2026-04-28 19:23 20.77312 106.81983 3356 ft 253 kts 135°
2026-04-28 19:23 20.76103 106.83376 3983 ft 259 kts 136°
2026-04-28 19:23 20.74855 106.84794 4587 ft 265 kts 136°
2026-04-28 19:23 20.73575 106.86258 5109 ft 275 kts 136°
2026-04-28 19:24 20.72242 106.87796 5566 ft 288 kts 135°
2026-04-28 19:24 20.70858 106.89393 6099 ft 297 kts 135°
2026-04-28 19:24 20.69445 106.91013 6779 ft 300 kts 135°
2026-04-28 19:24 20.68014 106.92653 7467 ft 302 kts 135°
2026-04-28 19:25 20.66541 106.94266 8135 ft 303 kts 143°
2026-04-28 19:25 20.65376 106.95071 8545 ft 300 kts 160°
2026-04-28 19:25 20.63368 106.95490 9174 ft 293 kts 185°
2026-04-28 19:25 20.60668 106.95285 10023 ft 295 kts 190°
2026-04-28 19:26 20.58589 106.95065 10441 ft 307 kts 189°
2026-04-28 19:26 20.57150 106.94940 10589 ft 319 kts 188°
2026-04-28 19:26 20.54864 106.94801 10790 ft 338 kts 186°
2026-04-28 19:26 20.52454 106.94704 10988 ft 355 kts 185°
2026-04-28 19:27 20.49928 106.94618 11182 ft 371 kts 185°
2026-04-28 19:27 20.47297 106.94517 11401 ft 384 kts 186°
2026-04-28 19:27 20.44603 106.94398 11868 ft 388 kts 186°
2026-04-28 19:27 20.41005 106.94225 12581 ft 392 kts 186°
2026-04-28 19:28 20.39162 106.94137 12932 ft 394 kts 186°
2026-04-28 19:28 20.36414 106.94009 13433 ft 397 kts 186°
2026-04-28 19:28 20.33686 106.93882 13927 ft 399 kts 186°
2026-04-28 19:28 20.30901 106.93754 14424 ft 401 kts 186°
2026-04-28 19:29 20.28096 106.93628 14895 ft 404 kts 186°
2026-04-28 19:29 20.26190 106.93545 15199 ft 406 kts 186°
2026-04-28 19:29 20.22425 106.93376 15767 ft 411 kts 186°
2026-04-28 19:29 20.20534 106.93288 16045 ft 413 kts 186°